STARLINK-37277, 68751

Orbit data source: Space-Track

STARLINK-37277, 68751 is a payload satellite owned by SpaceX/Seattle (US) in SSO that was launched on Wed, 15 Apr 2026 UTC via an FALCON 9 launch vehicle from the Air Force Western Test Range (AFWTR). Payload-class satellites include a variety of spacecraft equipped with specific instruments for various scientific and technological missions. These include communications satellites like Starlink; space stations such as the ISS; scientific satellites like the Hubble; Earth observation satellites from companies like Planet Labs, Umbra, and HawkEye 360; GPS; miniature CubeSats for education and research; and military/defense satellites.

Loading next visibility...
Identifier
68751, 2026-082Z
Orbit
SSO
Country
Flag of USUS
Related business
Manufacturer
SpaceX/Seattle
Mission
Operational spacecraft
Bus & Motor
STARLINK V2MO, Unknown motor
Mass
575 kg wet, ~530 kg dry
Launch date (UTC)
2026-04-15 (2 months ago)
Launch vehicle
FALCON 9
Launch site
Air Force Western Test Range (AFWTR)
Object type
Payload
Rocket body
Debris
Shape & HBR
Unknown shape, 14.5 m
Radar Cross Section
Large (>1 m²)

Expand to show TLE details & history
Last TLE update: 17 hours ago

TLE from 17 hours ago
0 STARLINK-37277
1 68751U 26082Z   26171.20440397  .00024726  00000-0  76563-3 0  9992
2 68751  97.2861  34.7018 0001733 119.7117 240.4299 15.33447824 10165
Epoch: 2026-06-20T04:54Z
TLE epoch observation values (Epoch: 2026-06-20T04:54:20.503Z)
Latitude
0.00007°
Longitude
52.69398°
Altitude
469.232 km
Speed
7.631 km/s
True Right ascension
02h 18m 48s
True Declination
0° 00' 00"
Sunlit
Object was in daylight at epoch
Visualization orbit readout
Latitude
Unknown
Longitude
Unknown
Altitude
Unknown
Speed
Unknown
Apparent Right ascension
Unknown
Apparent Declination
Unknown
Sunlit
N/A
Visualization observer readout
Local Sidereal Time
08:33:05
Azimuth
Unknown
Elevation
Unknown
Doppler factor
Unknown
Orbital elements
Apogee altitude
463.663 km
Perigee altitude
461.292 km
Semi-major axis
6,840.615 km
Eccentricity
0.00017
Inclination
97.2861°
RAAN
34.7018°
Arg. of periapsis
119.7117°
True anomaly
240.41263°
Mean anomaly
240.4299°
Eccentric anomaly
240.42126°
Mean motion
3.83619 °/min
Orbital period
93.84 mins
BSTAR
0.00076563
Loading maneuver chart data...
Computing Atmospheric mass density...
Loading historical data...
Loading historical data...
Loading historical data...
Loading historical data...
Loading historical data...
Loading historical data...
Loading historical data...

Documentation

Showing up to 5 results
|